This is the latest recevied weather packets stored in our database for station/object N7MLR. If no packets are shown the sender has not sent any weather packets the latest 10 day(s).
| Time | Temp. | Humidity | Pressure | Rain* | Wind** | Luminosity | Snow |
|---|---|---|---|---|---|---|---|
| 1778077382 | 23.89° C | 93% | 1010.3 hPa | 0 mm | - | 57 W/m² | - |
| 1778077081 | 23.89° C | 93% | 1010.2 hPa | 0 mm | - | 62 W/m² | - |
| 1778076778 | 23.33° C | 94% | 1010.1 hPa | 0 mm | - | 63 W/m² | - |
| 1778076476 | 23.33° C | 94% | 1010.1 hPa | 0 mm | - | 50 W/m² | - |
| 1778076172 | 23.33° C | 94% | 1010.1 hPa | 0 mm | - | 43 W/m² | - |
| 1778075869 | 23.33° C | 94% | 1009.7 hPa | 0 mm | - | 52 W/m² | - |
| 1778075565 | 23.33° C | 94% | 1009.8 hPa | 0 mm | - | 47 W/m² | - |
| 1778075263 | 23.33° C | 94% | 1009.2 hPa | 0 mm | - | 38 W/m² | - |
| 1778074959 | 23.33° C | 94% | 1009.3 hPa | 0 mm | - | 51 W/m² | - |
| 1778074656 | 23.33° C | 94% | 1009.1 hPa | 0 mm | - | 46 W/m² | - |
| 1778074353 | 23.33° C | 94% | 1009 hPa | 0 mm | - | 62 W/m² | - |
| 1778074050 | 23.33° C | 94% | 1008.9 hPa | 0 mm | - | 39 W/m² | - |
| 1778073747 | 23.33° C | 94% | 1008.9 hPa | 0 mm | - | 25 W/m² | - |
| 1778073445 | 23.33° C | 94% | 1009 hPa | 0 mm | - | 30 W/m² | - |
| 1778073140 | 23.33° C | 94% | 1008.7 hPa | 0 mm | - | 36 W/m² | - |
| 1778072837 | 23.33° C | 94% | 1008.9 hPa | 0 mm | - | 33 W/m² | - |
| 1778072534 | 23.33° C | 94% | 1008.8 hPa | 0 mm | - | 24 W/m² | - |
| 1778072233 | 23.33° C | 93% | 1008.9 hPa | 0 mm | - | 24 W/m² | - |
| 1778071930 | 23.89° C | 93% | 1008.6 hPa | 0 mm | - | 19 W/m² | - |
| 1778071628 | 23.89° C | 93% | 1008.6 hPa | 0 mm | - | 22 W/m² | - |
| 1778071326 | 23.33° C | 94% | 1008.8 hPa | 0 mm | - | 16 W/m² | - |
| 1778071023 | 23.33° C | 95% | 1008.5 hPa | 0 mm | - | 19 W/m² | - |
| 1778070722 | 22.78° C | 96% | 1008.5 hPa | 0 mm | - | 15 W/m² | - |
| 1778070418 | 22.78° C | 96% | 1008.5 hPa | 0 mm | - | 11 W/m² | - |
| 1778070116 | 22.78° C | 96% | 1008.8 hPa | 0 mm | - | 5 W/m² | - |
* Rain latest hour (hover to see other rain measurements)
** Current wind speed in m/s (hover to see current wind gust speed)